Location: Prothero Mobile Home Park
(33.6181°N, 117.6989°W)
Time: 12:12:49
(UTC+00:00)

Daily predictions for brighter satellites

Satellite Brightness Start Highest point End
(mag) Time Altitude Azimuth Time Altitude Azimuth Time Altitude Azimuth
Cosmos 1980 Rocket 3.9 12:20:28 22° NNE 12:20:28 22° NNE 12:22:24 10° NNE
ATLAS 2AS CENTAUR R/B 2.9 12:29:51 47° SW 12:32:31 85° WNW 12:40:36 10° NNE
Okean O Rocket 4.3 12:35:26 10° NE 12:38:38 19° E 12:41:48 10° SE
Cosmos 2327 Rocket 4.3 12:46:13 58° NW 12:47:12 68° W 12:53:14 10° S
USA 238 DEB 3.9 12:44:38 30° NNW 12:48:38 77° ENE 12:56:06 10° SE
USA 238 3.9 12:44:42 29° NNW 12:48:44 76° ENE 12:56:12 10° SE
Cosmos 44 Rocket 3.7 12:50:21 50° S 12:50:21 50° S 12:54:02 10° SSE
Cosmos 2341 Rocket 4.5 12:45:22 10° N 12:51:32 60° E 12:57:38 10° SSE
Cosmos 1606 Rocket 3.7 12:48:29 10° S 12:52:55 74° E 12:57:20 10° N
Cosmos 1726 Rocket 4.1 12:49:21 10° S 12:53:41 58° E 12:58:03 10° NNE
Cosmos 923 Rocket 3.8 12:52:04 44° SSW 12:53:44 80° WNW 12:59:03 10° NNE
COSMO-SKYMED 1 3.3 12:52:20 10° SSE 12:56:32 52° ENE 13:00:09 14° N
Cosmos 2322 Rocket 2.5 13:02:07 10° S 13:07:43 67° ESE 13:13:22 10° NNE
Cosmos 2228 2.9 13:03:23 10° S 13:07:46 81° W 13:12:11 10° N
STARLINK 1044 4.4 13:09:50 33° N 13:09:50 33° N 13:12:15 10° NNE
Meteor 1-21 Rocket 4.2 13:06:07 10° NNW 13:12:01 73° W 13:17:54 10° S
Transit 2A Rocket 4.5 13:12:35 54° NW 13:12:35 54° NW 13:16:42 10° NNE
CZ-3 Stage 3 3.2 13:11:01 32° WSW 13:12:50 40° SSW 13:15:52 10° SE
METEOR-M 4.0 13:08:03 10° NNE 13:13:26 86° WNW 13:18:46 10° SSW
Meteor 2-10 4.0 13:08:40 10° SSW 13:14:14 74° W 13:19:37 10° N
CZ-4B DEB 4.2 13:08:53 10° NNE 13:14:26 86° ESE 13:19:56 10° SSW
SEDSat Delta rocket 4.2 13:13:57 33° WSW 13:16:22 49° SSW 13:21:55 10° SE
ALOS 2.1 13:14:55 10° N 13:19:33 67° WNW 13:24:10 10° SSW
Cosmos 2263 Rocket 2.8 13:14:14 10° NNW 13:19:47 56° ENE 13:25:20 10° SE
SKYMED 3 4.4 13:16:02 10° S 13:20:21 79° WSW 13:24:17 13° NNW
RESURS DK-1 3.2 13:18:40 10° S 13:22:40 53° ESE 13:26:42 10° NNE
Gbstr 26 Del rocket 4.5 13:20:13 29° W 13:23:35 51° NW 13:31:12 10° NE
STARLINK 1031 4.3 13:25:24 30° NNW 13:25:24 30° NNW 13:28:09 10° NNE
USA 32 3.9 13:19:48 10° N 13:25:04 86° W 13:30:18 10° S
Cosmos 2154 Rocket 4.5 13:23:26 18° NW 13:27:15 35° W 13:32:48 10° SSW
STARLINK 1024 4.3 13:28:20 29° NNW 13:28:20 29° NNW 13:31:11 10° NNE
Cosmos 1328 3.9 13:26:30 10° N 13:30:28 77° E 13:34:24 10° S
Cosmos 158 Rocket 3.7 13:26:16 10° SSW 13:31:06 74° WNW 13:36:00 10° NNE
STARLINK 1065 4.5 13:27:20 10° SSW 13:31:20 50° SE 13:35:21 10° NE
Lacrosse 5 1.9 13:28:54 22° WSW 13:31:59 54° NW 13:36:58 10° NNE
COSMOS 2455 4.1 13:32:37 20° NW 13:32:37 20° NW 13:36:29 10° N
STARLINK 1032 4.4 13:34:18 26° NNW 13:34:18 26° NNW 13:37:17 10° NNE
STARLINK 1063 4.3 13:32:15 10° SSW 13:36:18 56° SE 13:40:21 10° NE
USA 116 4.1 13:32:20 10° SSE 13:37:11 87° ENE 13:41:30 10° N
STARLINK 1011 4.5 13:37:16 25° NW 13:37:16 25° NW 13:40:21 10° NNE
Cosmos 1908 3.2 13:34:03 10° SSW 13:37:53 55° W 13:41:44 10° N
STARLINK 1064 4.0 13:37:10 10° SSW 13:41:14 63° SE 13:45:20 10° NE
NOSS 3-2 (C) 4.1 13:33:27 10° NNW 13:41:22 82° WSW 13:49:58 10° SSE
Cosmos 1680 Rocket 4.0 13:37:12 10° SW 13:42:04 36° WNW 13:46:57 10° N
ATLAS 3B R/B 3.4 13:36:35 10° NNW 13:43:13 55° ENE 13:50:03 10° SE
SKYMED 2 4.0 13:40:30 10° SSW 13:44:33 39° W 13:48:38 10° NNW
Genesis I 4.0 13:41:50 10° NNW 13:45:35 50° ENE 13:49:17 10° SE
STARLINK 1041 3.8 13:42:07 10° SW 13:46:13 71° SE 13:50:21 10° NE
SL-16 R/B 2.5 13:43:30 10° SW 13:48:51 43° WNW 13:54:15 10° N
NOSS 3-4 (A) 4.2 13:45:33 17° W 13:49:08 29° NW 13:54:31 10° N
NOSS 3-4 (C) 4.2 13:45:33 17° W 13:49:14 30° NW 13:54:38 10° N
Cosmos 1953 Rocket 3.8 13:45:21 10° NNW 13:49:35 47° W 13:53:45 10° SSW
USA 215 3.8 13:43:16 10° ESE 13:49:36 55° NE 13:55:56 10° NW
ADEOS Rocket 3.6 13:44:19 10° SSE 13:49:37 53° ENE 13:55:04 10° N
Cosmos 2366 rocket 4.0 13:43:59 10° N 13:50:21 80° W 13:56:41 10° S
STARLINK 1038 3.7 13:47:03 10° SW 13:51:10 80° SE 13:55:19 10° NE
SL-4 R/B 1.9 13:50:13 23° WNW 13:52:07 48° SW 13:55:24 10° SSE
Cosmos 1371 Rocket 4.3 13:48:28 10° NNW 13:53:47 74° ENE 13:59:06 10° SSE
Cosmos 2360 Rocket 2.3 13:48:39 10° SSW 13:54:18 84° ESE 14:00:00 10° NNE
NOAA 6 4.1 13:49:15 10° N 13:54:20 56° WNW 13:59:23 10° SSW
FENGYUN 3A 4.2 13:51:02 10° N 13:55:50 33° WNW 14:00:38 10° SW
STARLINK 1046 3.6 13:52:02 10° SW 13:56:10 89° SE 14:00:19 10° NE
Abrixas rocket 2.8 13:57:14 14° NW 13:59:34 45° NE 14:02:29 10° ESE
STARLINK 1039 3.5 13:56:59 10° SW 14:01:07 82° NW 14:05:16 10° NE
DMSP B5D1-3 4.5 13:58:55 10° S 14:04:00 69° WSW 14:09:05 10° NNW
CENTAUR R/B 3.3 13:56:12 10° NNW 14:04:34 76° WSW 14:13:18 10° SSE
Cosmos 1703 3.8 14:01:16 10° NNW 14:04:53 36° W 14:08:28 10° SSW
STARLINK 1045 3.5 14:01:58 10° SW 14:06:05 73° NW 14:10:13 10° NE
CZ-4B R/B 3.4 14:01:24 10° N 14:06:40 49° WNW 14:11:50 10° SW
Cosmos 2237 4.2 14:02:25 10° SSW 14:08:08 77° WNW 14:13:51 10° NNE
STARLINK 1050 3.6 14:07:05 10° SW 14:11:10 62° NW 14:15:16 10° NE
Cosmos 1340 Rocket 3.3 14:09:25 10° S 14:13:17 62° E 14:17:08 10° NNE
Okean O Rocket 2.4 14:11:06 10° N 14:14:58 30° WNW 14:18:48 10° SW
STARLINK 1055 3.7 14:12:05 10° WSW 14:16:09 56° NW 14:20:13 10° NE
SMAP 3.0 14:12:11 10° N 14:16:51 80° WNW 14:21:30 10° SSW
IUS-17 SRM-1 4.4 14:15:04 10° SW 14:17:06 26° SSE 14:20:53 10° E
COSMOS 2428 4.4 14:12:57 10° S 14:18:09 38° ESE 14:23:24 10° NE
Cosmos 2058 Rocket 4.3 14:16:04 10° SW 14:19:24 21° WNW 14:22:44 10° NNW
Okean-O 3.9 14:15:23 10° NNE 14:19:39 46° E 14:23:54 10° S
STARLINK 1022 3.8 14:17:07 10° WSW 14:21:08 50° NW 14:25:10 10° NE
Cosmos 1624 Rocket 4.0 14:16:44 10° NNW 14:21:54 68° WSW 14:27:02 10° S
Helios 1A Rocket 3.8 14:20:52 10° NNW 14:24:26 29° WNW 14:28:01 10° SW
ATLAS 2AS CENTAUR R/B 4.2 14:19:03 10° W 14:24:39 20° NW 14:30:17 10° N
STARLINK 1042 4.0 14:22:11 10° WSW 14:26:09 45° NW 14:30:09 10° NNE
CORIOLIS 4.2 14:23:57 10° N 14:29:19 83° WNW 14:34:41 10° SSW
STARLINK 1056 4.1 14:27:12 10° WSW 14:31:07 41° NW 14:35:03 10° NNE
Meteor 2-1 Rocket 4.4 14:26:40 10° S 14:32:21 81° E 14:37:57 10° N
Milstar 3 Cent rocket 3.8 14:25:52 10° WSW 14:39:03 62° S 14:45:26 10° E
